Location: Aero Crafter Incorporated Heliport
(33.1248°N, 96.5222°W)
Time: 08:11:35
(UTC+00:00)

Helios 1A Rocket - Pass Details

Date: 18 November 2025
Orbit: 439 x 452 km, 98.3° (Epoch: 08 December)

Event Time Altitude Azimuth Distance (km) Brightness Sun altitude
Rises 12:05:37 0° 174° (S) 2,424 6.4 -11.6°
Reaches altitude 10° 12:07:39 10° 179° (S) 1,555 5.4 -11.2°
Maximum altitude 12:10:56 57° 258° (WSW) 526 2.4 -10.5°
Drops below altitude 10° 12:14:13 10° 339° (NNW) 1,559 4.8 -9.9°
Sets 12:16:16 0° 343° (NNW) 2,432 5.8 -9.4°
